Rhinelander, WI

4:48 PM CDT on June 25, 2017 (GMT -0500)
Rhinelander-Oneida County

Weather History for KRHI - February, 2014

Change the Weather History Date:

Saturday, February 22, 2014

  Actual Average Record
Temperature  
Mean Temperature 8 °F 18 °F  
Max Temperature 14 °F 29 °F 56 °F (2000)
Min Temperature 2 °F 9 °F -29 °F (1936)
Degree Days  
Heating Degree Days 57 46  
Month to date heating degree days 1289 1089  
Since 1 July heating degree days 7227 6350  
Cooling Degree Days 0 0  
Month to date cooling degree days 0 0  
Year to date cooling degree days 0 0  
Moisture  
Dew Point 1 °F    
Average Humidity 77    
Maximum Humidity 88    
Minimum Humidity 66    
Precipitation  
Precipitation 0.01 in 0.03 in 0.69 in (1981)
Month to date precipitation 1.14 0.69  
Year to date precipitation 2.52 1.80  
Snow  
Snow 0.20 in - 6.30 in (1913)
Month to date snowfall 16.8  
Since 1 July snowfall 71.6  
Snow Depth 27.00 in    
Sea Level Pressure  
Sea Level Pressure 29.79 in    
Wind  
Wind Speed 19 mph (West)    
Max Wind Speed 26 mph    
Max Gust Speed 32 mph    
Visibility 8 miles    
Events Snow    
T = Trace of Precipitation, MM = Missing Value Source: NWS Daily Summary

Daily Weather History Graph

Daily Weather History Graph

Search for Another Location

Airport or City:

Trip Planner

Search our weather history database for the weather conditions in past years. The results will help you decide how hot, cold, wet, or windy it might be!

Date:

Astronomy

Feb. 22, 2014 Rise Set
Actual Time 6:48 AM CST 5:34 PM CST
Civil Twilight 6:18 AM CST 6:05 PM CST
Nautical Twilight 5:43 AM CST 6:39 PM CST
Astronomical Twilight 5:09 AM CST 7:13 PM CST
Moon 12:50 AM CST (2/22) 10:37 AM CST (2/22)
Length of Visible Light 11h 46m
Length of Day
10h 46m
Waning Gibbous, 50% of the Moon is Illuminated
Feb 22
Waning Gibbous
Mar 1
New
Mar 8
First Quarter
Mar 16
Full
Mar 23
Last Quarter

Hourly Weather History & Observations

Time (CST) Temp. Windchill Dew Point Humidity Pressure Visibility Wind Dir Wind Speed Gust Speed Precip Events Conditions
12:21 AM 7.0 °F -14.0 °F 3.0 °F 84% 29.50 in 4.0 mi West 23.0 mph - 0.00 in Snow Light Snow
12:53 AM 7.0 °F -13.1 °F 3.0 °F 84% 29.61 in 5.0 mi West 20.7 mph 29.9 mph 0.00 in   Overcast
1:53 AM 7.0 °F -12.1 °F 1.9 °F 80% 29.63 in 5.0 mi West 18.4 mph - 0.00 in   Haze
2:53 AM 6.1 °F -16.1 °F 1.0 °F 80% 29.65 in 4.0 mi West 25.3 mph 29.9 mph 0.00 in   Haze
3:53 AM 5.0 °F -14.7 °F 1.0 °F 84% 29.69 in 4.0 mi West 18.4 mph 25.3 mph 0.00 in   Overcast
4:53 AM 6.1 °F -13.8 °F 1.0 °F 80% 29.71 in 6.0 mi West 19.6 mph - 0.00 in   Haze
5:38 AM 5.0 °F -13.6 °F 1.0 °F 84% 29.61 in 5.0 mi WSW 16.1 mph 28.8 mph 0.00 in Snow Blowing Snow
5:53 AM 5.0 °F -14.7 °F 1.0 °F 84% 29.73 in 6.0 mi WSW 18.4 mph 25.3 mph 0.00 in   Overcast
6:29 AM 3.9 °F -16.1 °F -0.0 °F 84% 29.63 in 8.0 mi WSW 18.4 mph - 0.00 in   Overcast
6:53 AM 3.0 °F -16.7 °F -0.9 °F 84% 29.75 in 6.0 mi West 17.3 mph - 0.00 in Snow Blowing Snow
7:53 AM 3.0 °F -17.8 °F -2.0 °F 80% 29.78 in 6.0 mi West 19.6 mph - 0.00 in Snow Blowing Snow
8:53 AM 3.9 °F -16.1 °F -2.0 °F 76% 29.79 in 8.0 mi West 18.4 mph - N/A   Mostly Cloudy
9:09 AM 5.0 °F -13.6 °F -0.9 °F 76% 29.69 in 7.0 mi West 16.1 mph - N/A   Scattered Clouds
9:53 AM 6.1 °F -13.8 °F -0.9 °F 73% 29.81 in 7.0 mi West 19.6 mph 28.8 mph N/A   Partly Cloudy
10:53 AM 9.0 °F -9.0 °F 1.0 °F 70% 29.81 in 10.0 mi WSW 17.3 mph - N/A   Clear
11:53 AM 10.9 °F -8.8 °F 1.9 °F 67% 29.81 in 10.0 mi West 23.0 mph - N/A   Clear
12:53 PM 12.9 °F -5.7 °F 3.9 °F 67% 29.81 in 10.0 mi West 21.9 mph 27.6 mph N/A   Clear
1:53 PM 12.9 °F -4.9 °F 3.9 °F 67% 29.81 in 10.0 mi West 19.6 mph 29.9 mph N/A   Partly Cloudy
2:13 PM 12.9 °F -6.5 °F 5.0 °F 71% 29.72 in 7.0 mi West 24.2 mph 28.8 mph N/A   Mostly Cloudy
2:53 PM 12.9 °F -5.7 °F 5.0 °F 71% 29.84 in 6.0 mi West 21.9 mph 29.9 mph N/A Snow Blowing Snow
3:53 PM 12.0 °F -4.5 °F 5.0 °F 73% 29.86 in 9.0 mi WSW 16.1 mph 21.9 mph N/A   Overcast
4:53 PM 10.9 °F -7.0 °F 5.0 °F 77% 29.87 in 9.0 mi WSW 18.4 mph 26.5 mph N/A   Overcast
5:53 PM 10.0 °F -7.6 °F 3.9 °F 76% 29.90 in 7.0 mi West 17.3 mph - 0.00 in   Overcast
6:53 PM 8.1 °F -7.7 °F 1.9 °F 76% 29.92 in 10.0 mi WSW 12.7 mph - 0.00 in   Mostly Cloudy
7:25 PM 7.0 °F -11.6 °F 1.9 °F 80% 29.82 in 10.0 mi West 17.3 mph 23.0 mph N/A   Scattered Clouds
7:53 PM 7.0 °F -11.0 °F 1.0 °F 77% 29.94 in 10.0 mi West 16.1 mph 24.2 mph N/A   Clear
8:53 PM 6.1 °F -12.2 °F -0.0 °F 76% 29.96 in 10.0 mi West 16.1 mph - N/A   Clear
9:53 PM 5.0 °F -14.2 °F -0.0 °F 80% 29.97 in 10.0 mi West 17.3 mph - N/A   Clear
10:53 PM 3.9 °F -15.6 °F -0.9 °F 80% 29.97 in 10.0 mi West 17.3 mph - N/A   Clear
11:53 PM 1.9 °F -17.5 °F -2.9 °F 80% 29.98 in 10.0 mi West 16.1 mph - N/A   Clear